Location: Stone Trail Observatory
(44.2408°N, 105.6081°W)
Time: 02:05:28
(UTC-06:00)

Iridium 6 - Visible Passes

Search period start: 24 March 2017 00:00
Search period end: 03 April 2017 00:00
Orbit: 776 x 779 km, 86.4° (Epoch: 22 March)

Date Brightness Start Highest point End Pass type
(mag) Time Alt. Az. Time Alt. Az. Time Alt. Az.
24 Mar 8.3 00:26:37 10° N 00:27:13 13° N 00:27:13 13° N visible
24 Mar 8.1 23:53:04 10° N 23:53:55 15° N 23:53:55 15° N visible
25 Mar 8.0 23:19:48 10° NNE 23:20:37 14° NNE 23:20:37 14° NNE visible
26 Mar 8.4 01:00:51 10° NNW 01:01:06 11° NNW 01:01:06 11° NNW visible
26 Mar 8.0 22:46:52 10° NNE 22:47:19 12° NNE 22:47:19 12° NNE visible
27 Mar 8.2 00:26:51 10° NNW 00:27:48 15° NNW 00:27:48 15° NNW visible
27 Mar 7.9 23:53:09 10° N 23:54:31 18° N 23:54:31 18° N visible
28 Mar 7.7 23:19:43 10° N 23:21:15 19° NNE 23:21:15 19° NNE visible
29 Mar 8.4 01:01:27 10° NW 01:01:43 11° NW 01:01:43 11° NW visible
29 Mar 7.7 22:46:34 10° NNE 22:47:58 17° NNE 22:47:58 17° NNE visible
30 Mar 8.1 00:27:11 10° NNW 00:28:27 17° NNW 00:28:27 17° NNW visible
30 Mar 7.8 22:13:51 10° NNE 22:14:42 13° NE 22:14:42 13° NE visible
30 Mar 7.7 23:53:20 10° N 23:55:11 22° NNW 23:55:11 22° NNW visible
31 Mar 7.4 23:19:44 10° N 23:21:56 26° N 23:21:56 26° N visible
01 Apr 7.2 22:46:24 10° N 22:48:41 24° NNE 22:48:41 24° NNE visible
02 Apr 8.0 00:27:39 10° NNW 00:29:10 17° NW 00:29:10 17° NW visible
02 Apr 7.4 22:13:22 10° NNE 22:15:26 19° NE 22:15:26 19° NE visible
